Time,TemperatureF,DewpointF,PressureIn,WindDirection,WindDirectionDegrees,WindSpeedMPH,WindSpeedGustMPH,Humidity,HourlyPrecipIn,Conditions,Clouds,dailyrainin,SolarRadiationWatts/m^2,SoftwareType,DateUTC
2013-05-03 00:01:00,76.0,7.0,-100.00,North,350,0.0,0.0,7,0.00,,,0.00,1.000000,,2013-05-03 07:01:00,
2013-05-03 00:52:00,71.0,12.0,-100.00,NW,318,0.0,0.0,10,-99.99,,,0.00,1.000000,,2013-05-03 07:52:00,
2013-05-03 01:01:00,71.0,12.0,-100.00,NW,318,0.0,0.0,10,-99.99,,,0.00,1.000000,,2013-05-03 08:01:00,
2013-05-03 01:11:00,71.0,12.0,-100.00,NW,318,0.0,0.0,10,-99.99,,,0.00,1.000000,,2013-05-03 08:11:00,
2013-05-03 01:21:00,71.0,12.0,-100.00,NW,318,0.0,0.0,10,-99.99,,,0.00,1.000000,,2013-05-03 08:21:00,
2013-05-03 01:31:00,71.0,12.0,-100.00,NW,318,0.0,0.0,10,-99.99,,,0.00,1.000000,,2013-05-03 08:31:00,
2013-05-03 01:52:00,74.0,9.0,-100.00,NW,325,0.0,0.0,8,0.00,,,0.00,1.000000,,2013-05-03 08:52:00,
2013-05-03 02:01:00,74.0,9.0,-100.00,NW,325,0.0,0.0,8,0.00,,,0.00,1.000000,,2013-05-03 09:01:00,
2013-05-03 02:53:00,72.0,10.0,-100.00,WNW,300,3.0,9.0,9,-99.99,,,0.00,1.000000,,2013-05-03 09:53:00,
2013-05-03 03:02:00,72.0,10.0,-100.00,WNW,300,3.0,9.0,9,-99.99,,,0.00,1.000000,,2013-05-03 10:02:00,
2013-05-03 03:12:00,72.0,10.0,-100.00,WNW,300,3.0,9.0,9,-99.99,,,0.00,1.000000,,2013-05-03 10:12:00,
2013-05-03 03:22:00,72.0,10.0,-100.00,WNW,300,3.0,9.0,9,-99.99,,,0.00,1.000000,,2013-05-03 10:22:00,
2013-05-03 03:52:00,72.0,10.0,-100.00,NW,320,1.0,11.0,9,-99.99,,,0.00,1.000000,,2013-05-03 10:52:00,
2013-05-03 04:02:00,72.0,10.0,-100.00,NW,320,1.0,11.0,9,-99.99,,,0.00,1.000000,,2013-05-03 11:02:00,
2013-05-03 04:52:00,71.0,9.0,-100.00,NNW,342,0.0,10.0,9,-99.99,,,0.00,1.000000,,2013-05-03 11:52:00,
2013-05-03 05:01:00,71.0,9.0,-100.00,NNW,342,0.0,10.0,9,-99.99,,,0.00,1.000000,,2013-05-03 12:01:00,
2013-05-03 05:11:00,71.0,9.0,-100.00,NNW,342,0.0,10.0,9,-99.99,,,0.00,1.000000,,2013-05-03 12:11:00,
2013-05-03 05:21:00,71.0,9.0,-100.00,NNW,342,0.0,10.0,9,-99.99,,,0.00,1.000000,,2013-05-03 12:21:00,
2013-05-03 05:32:00,71.0,9.0,-100.00,NNW,342,0.0,10.0,9,-99.99,,,0.00,1.000000,,2013-05-03 12:32:00,
2013-05-03 05:52:00,70.0,9.0,-100.00,NW,314,0.0,0.0,9,0.00,,,0.00,1.000000,,2013-05-03 12:52:00,
2013-05-03 06:01:00,70.0,9.0,-100.00,NW,314,0.0,0.0,9,0.00,,,0.00,1.000000,,2013-05-03 13:01:00,
2013-05-03 06:11:00,70.0,9.0,-100.00,NW,314,0.0,0.0,9,0.00,,,0.00,1.000000,,2013-05-03 13:11:00,
2013-05-03 06:22:00,70.0,9.0,-100.00,NW,314,0.0,0.0,9,0.00,,,0.00,1.000000,,2013-05-03 13:22:00,
2013-05-03 06:31:00,70.0,9.0,-100.00,NW,314,0.0,0.0,9,0.00,,,0.00,1.000000,,2013-05-03 13:31:00,
2013-05-03 06:52:00,70.0,11.0,-100.00,NW,324,4.0,6.0,10,0.00,,,0.00,4.000000,,2013-05-03 13:52:00,
2013-05-03 07:01:00,70.0,11.0,-100.00,NW,324,4.0,6.0,10,0.00,,,0.00,4.000000,,2013-05-03 14:01:00,
2013-05-03 07:31:00,70.0,11.0,-100.00,NW,324,4.0,6.0,10,0.00,,,0.00,4.000000,,2013-05-03 14:31:00,
2013-05-03 07:52:00,70.0,17.0,-100.00,NW,309,0.0,6.0,13,0.00,,,0.00,93.000000,,2013-05-03 14:52:00,
2013-05-03 08:01:00,70.0,17.0,-100.00,NW,309,0.0,6.0,13,0.00,,,0.00,93.000000,,2013-05-03 15:01:00,
2013-05-03 08:11:00,70.0,17.0,-100.00,NW,309,0.0,6.0,13,0.00,,,0.00,93.000000,,2013-05-03 15:11:00,
2013-05-03 08:53:00,73.0,31.0,-100.00,SSE,157,0.0,4.0,21,0.00,,,0.00,287.000000,,2013-05-03 15:53:00,
2013-05-03 09:03:00,73.0,31.0,-100.00,SSE,157,0.0,4.0,21,0.00,,,0.00,287.000000,,2013-05-03 16:03:00,
2013-05-03 09:12:00,73.0,31.0,-100.00,SSE,157,0.0,4.0,21,0.00,,,0.00,287.000000,,2013-05-03 16:12:00,
2013-05-03 09:22:00,73.0,31.0,-100.00,SSE,157,0.0,4.0,21,0.00,,,0.00,287.000000,,2013-05-03 16:22:00,
2013-05-03 09:32:00,73.0,31.0,-100.00,SSE,157,0.0,4.0,21,0.00,,,0.00,287.000000,,2013-05-03 16:32:00,
2013-05-03 09:52:00,75.0,37.0,-100.00,ESE,119,1.0,4.0,25,0.00,,,0.00,489.000000,,2013-05-03 16:52:00,
2013-05-03 10:02:00,75.0,37.0,-100.00,ESE,119,1.0,4.0,25,0.00,,,0.00,489.000000,,2013-05-03 17:02:00,
2013-05-03 10:11:00,75.0,37.0,-100.00,ESE,119,1.0,4.0,25,0.00,,,0.00,489.000000,,2013-05-03 17:11:00,
2013-05-03 10:22:00,75.0,37.0,-100.00,ESE,119,1.0,4.0,25,0.00,,,0.00,489.000000,,2013-05-03 17:22:00,
2013-05-03 10:31:00,75.0,37.0,-100.00,ESE,119,1.0,4.0,25,0.00,,,0.00,489.000000,,2013-05-03 17:31:00,
2013-05-03 10:52:00,78.0,40.0,-100.00,SSW,203,0.0,3.0,26,0.00,,,0.00,673.000000,,2013-05-03 17:52:00,
2013-05-03 11:01:00,78.0,40.0,-100.00,SSW,203,0.0,3.0,26,0.00,,,0.00,673.000000,,2013-05-03 18:01:00,
2013-05-03 11:12:00,78.0,40.0,-100.00,SSW,203,0.0,3.0,26,0.00,,,0.00,673.000000,,2013-05-03 18:12:00,
2013-05-03 11:21:00,78.0,40.0,-100.00,SSW,203,0.0,3.0,26,0.00,,,0.00,673.000000,,2013-05-03 18:21:00,
2013-05-03 11:31:00,78.0,40.0,-100.00,SSW,203,0.0,3.0,26,0.00,,,0.00,673.000000,,2013-05-03 18:31:00,
2013-05-03 11:52:00,80.0,44.0,-100.00,South,188,0.0,6.0,28,0.00,,,0.00,823.000000,,2013-05-03 18:52:00,
2013-05-03 12:01:00,80.0,44.0,-100.00,South,188,0.0,6.0,28,0.00,,,0.00,823.000000,,2013-05-03 19:01:00,
2013-05-03 12:11:00,80.0,44.0,-100.00,South,188,0.0,6.0,28,0.00,,,0.00,823.000000,,2013-05-03 19:11:00,
2013-05-03 12:21:00,80.0,44.0,-100.00,South,188,0.0,6.0,28,0.00,,,0.00,823.000000,,2013-05-03 19:21:00,
2013-05-03 12:31:00,80.0,44.0,-100.00,South,188,0.0,6.0,28,0.00,,,0.00,823.000000,,2013-05-03 19:31:00,
2013-05-03 12:52:00,80.0,39.0,-100.00,SSE,150,0.0,0.0,23,0.00,,,-99.99,916.000000,,2013-05-03 19:52:00,
2013-05-03 13:02:00,80.0,39.0,-100.00,SSE,150,0.0,0.0,23,0.00,,,-99.99,916.000000,,2013-05-03 20:02:00,
2013-05-03 13:11:00,80.0,39.0,-100.00,SSE,150,0.0,0.0,23,0.00,,,-99.99,916.000000,,2013-05-03 20:11:00,
2013-05-03 13:21:00,80.0,39.0,-100.00,SSE,150,0.0,0.0,23,0.00,,,-99.99,916.000000,,2013-05-03 20:21:00,
2013-05-03 13:31:00,80.0,39.0,-100.00,SSE,150,0.0,0.0,23,0.00,,,-99.99,916.000000,,2013-05-03 20:31:00,
2013-05-03 13:52:00,83.0,31.0,-100.00,SSE,151,1.0,12.0,15,0.00,,,0.00,956.000000,,2013-05-03 20:52:00,
2013-05-03 14:01:00,83.0,31.0,-100.00,SSE,151,1.0,12.0,15,0.00,,,0.00,956.000000,,2013-05-03 21:01:00,
2013-05-03 14:11:00,83.0,31.0,-100.00,SSE,151,1.0,12.0,15,0.00,,,0.00,956.000000,,2013-05-03 21:11:00,
2013-05-03 14:21:00,83.0,31.0,-100.00,SSE,151,1.0,12.0,15,0.00,,,0.00,956.000000,,2013-05-03 21:21:00,
2013-05-03 14:32:00,83.0,31.0,-100.00,SSE,151,1.0,12.0,15,0.00,,,0.00,956.000000,,2013-05-03 21:32:00,
2013-05-03 14:53:00,85.0,30.0,-100.00,SSE,153,2.0,13.0,14,0.00,,,0.00,946.000000,,2013-05-03 21:53:00,
2013-05-03 15:02:00,85.0,30.0,-100.00,SSE,153,2.0,13.0,14,0.00,,,0.00,946.000000,,2013-05-03 22:02:00,
2013-05-03 15:12:00,85.0,30.0,-100.00,SSE,153,2.0,13.0,14,0.00,,,0.00,946.000000,,2013-05-03 22:12:00,
2013-05-03 15:22:00,85.0,30.0,-100.00,SSE,153,2.0,13.0,14,0.00,,,0.00,946.000000,,2013-05-03 22:22:00,
2013-05-03 15:32:00,85.0,30.0,-100.00,SSE,153,2.0,13.0,14,0.00,,,0.00,946.000000,,2013-05-03 22:32:00,
2013-05-03 16:01:00,86.0,33.0,-100.00,SSE,152,0.0,0.0,15,0.00,,,0.00,872.000000,,2013-05-03 23:01:00,
2013-05-03 16:11:00,86.0,33.0,-100.00,SSE,152,0.0,0.0,15,0.00,,,0.00,872.000000,,2013-05-03 23:11:00,
2013-05-03 16:21:00,86.0,33.0,-100.00,SSE,152,0.0,0.0,15,0.00,,,0.00,872.000000,,2013-05-03 23:21:00,
2013-05-03 16:31:00,86.0,33.0,-100.00,SSE,152,0.0,0.0,15,0.00,,,0.00,872.000000,,2013-05-03 23:31:00,
2013-05-03 17:01:00,82.0,37.0,-100.00,West,270,9.0,20.0,20,0.00,,,0.00,741.000000,,2013-05-04 00:01:00,
2013-05-03 17:11:00,82.0,37.0,-100.00,West,270,9.0,20.0,20,0.00,,,0.00,741.000000,,2013-05-04 00:11:00,
2013-05-03 17:22:00,82.0,37.0,-100.00,West,270,9.0,20.0,20,0.00,,,0.00,741.000000,,2013-05-04 00:22:00,
2013-05-03 17:31:00,82.0,37.0,-100.00,West,270,9.0,20.0,20,0.00,,,0.00,741.000000,,2013-05-04 00:31:00,
2013-05-03 17:52:00,79.0,30.0,-100.00,WSW,254,10.0,23.0,17,0.00,,,0.00,569.000000,,2013-05-04 00:52:00,
2013-05-03 18:01:00,79.0,30.0,-100.00,WSW,254,10.0,23.0,17,0.00,,,0.00,569.000000,,2013-05-04 01:01:00,
2013-05-03 18:11:00,79.0,30.0,-100.00,WSW,254,10.0,23.0,17,0.00,,,0.00,569.000000,,2013-05-04 01:11:00,
2013-05-03 18:21:00,79.0,30.0,-100.00,WSW,254,10.0,23.0,17,0.00,,,0.00,569.000000,,2013-05-04 01:21:00,
2013-05-03 18:31:00,79.0,30.0,-100.00,WSW,254,10.0,23.0,17,0.00,,,0.00,569.000000,,2013-05-04 01:31:00,
2013-05-03 18:52:00,76.0,22.0,-100.00,WSW,249,13.0,27.0,13,0.00,,,0.00,370.000000,,2013-05-04 01:52:00,
2013-05-03 19:02:00,76.0,22.0,-100.00,WSW,249,13.0,27.0,13,0.00,,,0.00,370.000000,,2013-05-04 02:02:00,
2013-05-03 19:11:00,76.0,22.0,-100.00,WSW,249,13.0,27.0,13,0.00,,,0.00,370.000000,,2013-05-04 02:11:00,
2013-05-03 19:21:00,76.0,22.0,-100.00,WSW,249,13.0,27.0,13,0.00,,,0.00,370.000000,,2013-05-04 02:21:00,
2013-05-03 19:32:00,76.0,22.0,-100.00,WSW,249,13.0,27.0,13,0.00,,,0.00,370.000000,,2013-05-04 02:32:00,
2013-05-03 19:52:00,72.0,22.0,-100.00,NNW,334,6.0,22.0,15,0.00,,,0.00,163.000000,,2013-05-04 02:52:00,
2013-05-03 20:02:00,72.0,22.0,-100.00,NNW,334,6.0,22.0,15,0.00,,,0.00,163.000000,,2013-05-04 03:02:00,
2013-05-03 20:11:00,72.0,22.0,-100.00,NNW,334,6.0,22.0,15,0.00,,,0.00,163.000000,,2013-05-04 03:11:00,
2013-05-03 20:21:00,72.0,22.0,-100.00,NNW,334,6.0,22.0,15,0.00,,,0.00,163.000000,,2013-05-04 03:21:00,
2013-05-03 20:32:00,72.0,22.0,-100.00,NNW,334,6.0,22.0,15,0.00,,,0.00,163.000000,,2013-05-04 03:32:00,
2013-05-03 20:53:00,74.0,18.0,-100.00,NE,52,0.0,11.0,12,0.00,,,0.00,16.000000,,2013-05-04 03:53:00,
2013-05-03 21:02:00,74.0,18.0,-100.00,NE,52,0.0,11.0,12,0.00,,,0.00,16.000000,,2013-05-04 04:02:00,
2013-05-03 21:12:00,74.0,18.0,-100.00,NE,52,0.0,11.0,12,0.00,,,0.00,16.000000,,2013-05-04 04:12:00,
2013-05-03 21:22:00,74.0,18.0,-100.00,NE,52,0.0,11.0,12,0.00,,,0.00,16.000000,,2013-05-04 04:22:00,
2013-05-03 21:32:00,74.0,18.0,-100.00,NE,52,0.0,11.0,12,0.00,,,0.00,16.000000,,2013-05-04 04:32:00,
2013-05-03 21:52:00,77.0,16.0,-100.00,NNE,26,4.0,14.0,10,0.00,,,0.00,1.000000,,2013-05-04 04:52:00,
2013-05-03 22:02:00,77.0,16.0,-100.00,NNE,26,4.0,14.0,10,0.00,,,0.00,1.000000,,2013-05-04 05:02:00,
2013-05-03 22:52:00,75.0,17.0,-100.00,NNW,333,1.0,11.0,11,-99.99,,,0.00,1.000000,,2013-05-04 05:52:00,
2013-05-03 23:01:00,75.0,17.0,-100.00,NNW,333,1.0,11.0,11,-99.99,,,0.00,1.000000,,2013-05-04 06:01:00,
2013-05-03 23:52:00,72.0,18.0,-100.00,WNW,292,0.0,8.0,13,-99.99,,,0.00,0.000000,,2013-05-04 06:52:00,